GW3114 Weather Reports


Display with metric or nautical units.
time (UTC)temp
F
wind
direction
speed
MPH
gust
MPH
rain 1hr
in
rain 24hr
in
rain mn
in
humidity
%
barometer
mb
20260509062538 57 266 0.0 1.0 0.00 0.00 0.00 61 1011.3
20260509061532 57 175 1.0 2.0 0.00 0.00 0.00 61 1011.7
20260509060527 57 181 3.0 4.0 0.00 0.00 0.00 59 1011.6
20260509055523 57 263 2.0 3.0 0.00 0.00 0.00 59 1011.8
20260509054523 57 179 4.0 4.0 0.00 0.00 0.00 58 1011.9
20260509053519 57 169 4.0 6.0 0.00 0.00 0.00 59 1011.8
20260509052519 57 174 2.0 3.0 0.00 0.00 0.00 59 1011.7
20260509051515 57 188 3.0 4.0 0.00 0.00 0.00 60 1012.0
20260509050514 57 178 1.0 1.0 0.00 0.00 0.00 60 1012.0
20260509045514 57 129 2.0 3.0 0.00 0.00 0.00 61 1012.0
20260509044515 57 206 0.0 0.0 0.00 0.00 0.00 61 1011.8
20260509043514 57 197 1.0 2.0 0.00 0.00 0.00 61 1011.9
20260509042512 56 200 1.0 1.0 0.00 0.00 0.00 62 1011.9
20260509041511 57 192 2.0 2.0 0.00 0.00 0.00 61 1011.9
20260509040507 57 216 1.0 1.0 0.00 0.00 0.00 61 1011.9
20260509035506 56 205 1.0 2.0 0.00 0.00 0.00 61 1011.9
20260509034501 57 209 0.0 1.0 0.00 0.00 0.00 61 1011.9
20260509033500 57 184 2.0 2.0 0.00 0.00 0.00 60 1012.1
20260509032500 57 216 1.0 2.0 0.00 0.00 0.00 60 1012.0
20260509031500 57 208 1.0 2.0 0.00 0.00 0.00 61 1012.5
20260509030456 54 190 0.0 0.0 0.00 0.00 0.00 67 1012.1
20260509025454 51 214 0.0 0.0 0.00 0.00 0.00 77 1012.2
20260509024452 52 214 0.0 0.0 0.00 0.00 0.00 77 1012.6
20260509023452 52 222 0.0 0.0 0.00 0.00 0.00 76 1012.4
20260509022451 53 220 0.0 0.0 0.00 0.00 0.00 74 1012.4
20260509021451 54 219 0.0 1.0 0.00 0.00 0.00 72 1012.3
20260509020447 55 217 0.0 0.0 0.00 0.00 0.00 73 1012.3
20260509015442 56 215 0.0 0.0 0.00 0.00 0.00 68 1012.0
20260509014441 57 218 0.0 0.0 0.00 0.00 0.00 64 1012.2
20260509013440 58 208 0.0 0.0 0.00 0.00 0.00 58 1012.2
20260509012438 60 205 0.0 0.0 0.00 0.00 0.00 55 1012.2
20260509011438 60 199 0.0 0.0 0.00 0.00 0.00 54 1012.1
20260509010433 61 207 0.0 0.0 0.00 0.00 0.00 54 1011.8
20260509005428 62 208 0.0 0.0 0.00 0.00 0.00 51 1011.9
20260509004425 63 209 0.0 0.0 0.00 0.00 0.00 49 1012.0
20260509003420 64 208 0.0 1.0 0.00 0.00 0.00 48 1011.8
20260509002415 65 215 1.0 1.0 0.00 0.00 0.00 46 1011.8
20260509001414 66 203 0.0 0.0 0.00 0.00 0.00 46 1011.9
20260509000410 66 211 0.0 0.0 0.00 0.00 0.00 45 1011.7
20260508235408 67 195 2.0 2.0 0.00 0.00 0.00 44 1011.1
20260508234408 67 179 3.0 4.0 0.00 0.00 0.00 43 1011.4
20260508233405 67 156 3.0 3.0 0.00 0.00 0.00 44 1011.5
20260508232404 67 194 1.0 1.0 0.00 0.00 0.00 45 1011.5
20260508231358 67 179 1.0 1.0 0.00 0.00 0.00 44 1011.5
20260508230358 67 178 1.0 2.0 0.00 0.00 0.00 42 1011.2
20260508225357 68 211 1.0 1.0 0.00 0.00 0.00 40 1011.3
20260508224352 69 178 0.0 1.0 0.00 0.00 0.00 39 1010.8
20260508223347 71 200 1.0 1.0 0.00 0.00 0.00 35 1011.1
20260508222342 72 220 1.0 1.0 0.00 0.00 0.00 38 1010.9
20260508221339 75 229 0.0 0.0 0.00 0.00 0.00 34 1011.0
20260508220338 74 265 2.0 3.0 0.00 0.00 0.00 35 1010.9
20260508215337 72 171 1.0 2.0 0.00 0.00 0.00 36 1011.3
20260508214332 71 204 0.0 0.0 0.00 0.00 0.00 39 1011.1
20260508213331 70 215 0.0 0.0 0.00 0.00 0.00 39 1011.3
20260508212329 69 204 0.0 0.0 0.00 0.00 0.00 38 1011.3
20260508211326 70 198 0.0 1.0 0.00 0.00 0.00 40 1011.4
20260508210321 71 243 1.0 1.0 0.00 0.00 0.00 36 1011.5
20260508205320 75 196 1.0 1.0 0.00 0.00 0.00 37 1011.3
20260508204319 75 259 2.0 2.0 0.00 0.00 0.00 35 1011.4
20260508203317 74 217 3.0 6.0 0.00 0.00 0.00 35 1011.4
20260508202316 74 236 2.0 3.0 0.00 0.00 0.00 36 1011.5
20260508201316 73 253 1.0 1.0 0.00 0.00 0.00 35 1011.6
20260508200314 73 190 2.0 3.0 0.00 0.00 0.00 41 1011.7
20260508195313 74 260 2.0 3.0 0.00 0.00 0.00 37 1012.1
20260508194313 73 281 2.0 3.0 0.00 0.00 0.00 34 1012.1
20260508193312 75 250 0.0 1.0 0.00 0.00 0.00 40 1012.5
20260508192311 73 226 1.0 2.0 0.00 0.00 0.00 38 1012.4
20260508191306 72 192 2.0 2.0 0.00 0.00 0.00 35 1012.4
20260508190305 74 286 9.0 10.0 0.00 0.00 0.00 32 1012.9
20260508185306 71 116 5.0 7.0 0.00 0.00 0.00 33 1012.8
20260508184305 73 211 1.0 1.0 0.00 0.00 0.00 40 1013.0
20260508183304 72 227 2.0 3.0 0.00 0.00 0.00 38 1013.1
20260508182306 73 326 9.0 14.0 0.00 0.00 0.00 37 1013.2
20260508181301 73 262 4.0 8.0 0.00 0.00 0.00 41 1013.3
20260508180301 71 155 2.0 2.0 0.00 0.00 0.00 37 1013.3
20260508175300 72 262 2.0 3.0 0.00 0.00 0.00 38 1013.5
20260508174255 70 281 3.0 4.0 0.00 0.00 0.00 36 1013.7
20260508173254 69 222 1.0 1.0 0.00 0.00 0.00 41 1013.6
20260508172254 71 216 4.0 6.0 0.00 0.00 0.00 34 1013.8
20260508171252 70 223 2.0 2.0 0.00 0.00 0.00 39 1014.0
20260508170247 70 102 9.0 10.0 0.00 0.00 0.00 39 1014.0
20260508165247 71 221 3.0 4.0 0.00 0.00 0.00 39 1014.1
20260508164245 70 276 5.0 8.0 0.00 0.00 0.00 42 1014.2
20260508163241 69 279 3.0 4.0 0.00 0.00 0.00 42 1014.3
20260508162239 70 270 8.0 13.0 0.00 0.00 0.00 40 1014.3
20260508161239 70 227 3.0 4.0 0.00 0.00 0.00 40 1014.5
20260508160236 69 264 3.0 4.0 0.00 0.00 0.00 43 1014.8
20260508155235 69 230 5.0 8.0 0.00 0.00 0.00 44 1014.9
20260508154235 68 270 4.0 6.0 0.00 0.00 0.00 46 1014.8
20260508153234 69 271 3.0 3.0 0.00 0.00 0.00 44 1014.9
20260508152232 67 292 1.0 1.0 0.00 0.00 0.00 45 1015.0
20260508151231 67 236 3.0 6.0 0.00 0.00 0.00 44 1015.3
20260508150230 67 191 3.0 4.0 0.00 0.00 0.00 44 1015.5
20260508145228 67 224 3.0 6.0 0.00 0.00 0.00 44 1015.4
20260508144223 66 291 2.0 4.0 0.00 0.00 0.00 44 1015.6
20260508143223 65 88 3.0 4.0 0.00 0.00 0.00 45 1015.7
20260508142222 66 216 6.0 8.0 0.00 0.00 0.00 41 1015.6
20260508141222 66 252 4.0 7.0 0.00 0.00 0.00 41 1015.7
20260508140221 64 216 2.0 2.0 0.00 0.00 0.00 43 1015.8
20260508135219 65 316 4.0 6.0 0.00 0.00 0.00 41 1015.8
20260508134218 65 207 2.0 2.0 0.00 0.00 0.00 41 1015.7
20260508133218 64 290 4.0 4.0 0.00 0.00 0.00 42 1015.9
20260508132213 63 224 1.0 2.0 0.00 0.00 0.00 45 1015.8
20260508131211 62 243 2.0 3.0 0.00 0.00 0.00 46 1016.0
20260508130211 62 284 1.0 1.0 0.00 0.00 0.00 52 1016.3
20260508125209 63 229 1.0 1.0 0.00 0.00 0.00 45 1016.3
20260508124209 61 238 3.0 3.0 0.00 0.00 0.00 48 1016.4
20260508123206 61 176 1.0 1.0 0.00 0.00 0.00 56 1016.1
20260508122204 59 188 0.0 1.0 0.00 0.00 0.00 58 1016.1
20260508121200 57 206 0.0 1.0 0.00 0.00 0.00 59 1015.8
20260508120155 58 200 0.0 0.0 0.00 0.00 0.00 64 1016.2
20260508115155 55 199 0.0 0.0 0.00 0.00 0.00 77 1015.8
20260508114155 51 199 0.0 0.0 0.00 0.00 0.00 76 1016.0
20260508113150 46 209 0.0 0.0 0.00 0.00 0.00 91 1015.9
20260508112148 42 213 0.0 0.0 0.00 0.00 0.00 95 1015.5
20260508111148 40 216 0.0 0.0 0.00 0.00 0.00 95 1015.6
20260508110148 39 232 1.0 1.0 0.00 0.00 0.00 95 1015.6
20260508105146 38 218 1.0 1.0 0.00 0.00 0.00 95 1015.1
20260508104145 37 219 1.0 1.0 0.00 0.00 0.00 95 1015.3
20260508103146 37 205 0.0 0.0 0.00 0.00 0.00 95 1015.0
20260508102141 37 218 0.0 0.0 0.00 0.00 0.00 94 1014.9
20260508101141 37 217 0.0 0.0 0.00 0.00 0.00 94 1014.8
20260508100136 38 216 0.0 0.0 0.00 0.00 0.00 93 1014.7
20260508095135 38 224 1.0 1.0 0.00 0.00 0.00 93 1014.7
20260508094135 39 223 1.0 1.0 0.00 0.00 0.00 92 1014.5
20260508093130 39 213 1.0 1.0 0.00 0.00 0.00 91 1014.5
20260508092125 39 227 1.0 1.0 0.00 0.00 0.00 90 1014.3
20260508091125 40 219 2.0 2.0 0.00 0.00 0.00 88 1014.6
20260508090120 40 230 0.0 0.0 0.00 0.00 0.00 89 1014.5
20260508085119 40 231 1.0 1.0 0.00 0.00 0.00 89 1014.4
20260508084119 40 217 0.0 0.0 0.00 0.00 0.00 88 1014.3
20260508083119 40 220 1.0 1.0 0.00 0.00 0.00 89 1014.4
20260508082118 40 222 0.0 0.0 0.00 0.00 0.00 89 1014.4
20260508081117 40 214 0.0 0.0 0.00 0.00 0.00 88 1014.1
20260508080113 40 221 0.0 0.0 0.00 0.00 0.00 89 1014.2
20260508075112 41 216 0.0 0.0 0.00 0.00 0.00 87 1014.0
20260508074112 41 224 0.0 1.0 0.00 0.00 0.00 87 1013.8
20260508073107 41 203 0.0 0.0 0.00 0.00 0.00 88 1013.9
20260508072106 42 222 0.0 0.0 0.00 0.00 0.00 86 1013.7
20260508071102 42 213 0.0 0.0 0.00 0.00 0.00 86 1013.6
20260508070057 43 210 0.0 0.0 0.00 0.00 0.00 84 1013.5
20260508065052 43 208 0.0 0.0 0.00 0.00 0.00 84 1013.5
20260508064047 44 217 0.0 0.0 0.00 0.00 0.00 83 1013.4